Hereford, TX

1:07 PM CDT on September 30, 2016 (GMT -0500)
Hereford Municipal

Weather History for KHRX - March, 2014

Change the Weather History Date:

Sunday, March 23, 2014

  Actual Average (KAMA) Record (KAMA)
Temperature  
Mean Temperature 38 °F 50 °F  
Max Temperature 53 °F 65 °F 83 °F (2002)
Min Temperature 24 °F 35 °F 11 °F (1898)
Degree Days  
Heating Degree Days 26 15  
Month to date heating degree days 419  
Since 1 July heating degree days 3696  
Cooling Degree Days 0 0  
Month to date cooling degree days 0  
Year to date cooling degree days 0  
Moisture  
Dew Point 17 °F    
Average Humidity 45    
Maximum Humidity 64    
Minimum Humidity 28    
Precipitation  
Precipitation 0.00 in 0.05 in 1.12 in (2000)
Month to date precipitation 0.99  
Year to date precipitation 2.27  
Snow  
Snow 0.00 in 0.10 in 4.00 in (1987)
Month to date snowfall 2.2  
Since 1 July snowfall 16.2  
Snow Depth -    
Sea Level Pressure  
Sea Level Pressure 30.30 in    
Wind  
Wind Speed 13 mph (North)    
Max Wind Speed 25 mph    
Max Gust Speed 31 mph    
Visibility 10 miles    
Events      
T = Trace of Precipitation, MM = Missing Value Source: NWS Daily Summary

Daily Weather History Graph

Daily Weather History Graph

Search for Another Location

Airport or City:

Trip Planner

Search our weather history database for the weather conditions in past years. The results will help you decide how hot, cold, wet, or windy it might be!

Date:

Astronomy

Mar. 23, 2014 Rise Set
Actual Time 7:48 AM CDT 8:03 PM CDT
Civil Twilight 7:23 AM CDT 8:28 PM CDT
Nautical Twilight 6:53 AM CDT 8:58 PM CDT
Astronomical Twilight 6:24 AM CDT 9:28 PM CDT
Moon 2:11 AM CDT (3/23) 12:43 PM CDT (3/23)
Length of Visible Light 13h 05m
Length of Day
12h 14m
Waning Gibbous, 54% of the Moon is Illuminated
Mar 23
Waning Gibbous
Mar 23
Last Quarter
Mar 30
New
Apr 7
First Quarter
Apr 15
Full

Hourly Weather History & Observations

Time (CDT) Temp. Windchill Dew Point Humidity Pressure Visibility Wind Dir Wind Speed Gust Speed Precip Events Conditions
12:15 AM 43.9 °F 36.5 °F 20.8 °F 40% 30.22 in 10.0 mi ENE 16.1 mph 27.6 mph N/A   Scattered Clouds
12:35 AM 42.1 °F 33.1 °F 19.0 °F 40% 30.24 in 10.0 mi NE 20.7 mph 29.9 mph N/A   Mostly Cloudy
12:55 AM 39.9 °F 30.2 °F 18.9 °F 43% 30.27 in 10.0 mi NE 20.7 mph 29.9 mph N/A   Scattered Clouds
1:15 AM 38.5 °F 28.6 °F 19.4 °F 46% 30.29 in 10.0 mi NE 19.6 mph 26.5 mph N/A   Scattered Clouds
1:35 AM 37.4 °F 30.3 °F 19.8 °F 49% 30.31 in 10.0 mi NE 10.4 mph - N/A   Clear
1:55 AM 37.0 °F 27.7 °F 18.7 °F 48% 30.32 in 10.0 mi NE 16.1 mph 23.0 mph N/A   Clear
2:15 AM 30.4 °F 16.5 °F 10.4 °F 43% 30.33 in 10.0 mi NNE 25.3 mph 31.1 mph N/A   Clear
2:35 AM 28.4 °F 13.8 °F 8.6 °F 43% 30.34 in 10.0 mi NNE 25.3 mph 29.9 mph N/A   Clear
2:55 AM 27.3 °F 13.0 °F 7.5 °F 43% 30.35 in 10.0 mi NNE 23.0 mph 29.9 mph N/A   Clear
3:15 AM 26.6 °F 13.8 °F 7.0 °F 43% 30.35 in 10.0 mi NNE 17.3 mph 26.5 mph N/A   Clear
3:35 AM 26.4 °F 13.6 °F 6.6 °F 43% 30.35 in 10.0 mi NNE 17.3 mph 24.2 mph N/A   Clear
3:55 AM 25.7 °F 13.1 °F 6.3 °F 44% 30.35 in 10.0 mi NNE 16.1 mph - N/A   Clear
4:15 AM 25.2 °F 13.3 °F 6.8 °F 46% 30.35 in 10.0 mi NNE 13.8 mph - N/A   Clear
4:35 AM 25.5 °F 13.8 °F 7.3 °F 46% 30.35 in 10.0 mi NNE 13.8 mph - N/A   Clear
4:55 AM 24.8 °F 13.4 °F 7.7 °F 48% 30.35 in 10.0 mi NNE 12.7 mph - N/A   Clear
5:15 AM 24.8 °F 12.9 °F 7.7 °F 48% 30.36 in 10.0 mi NNE 13.8 mph - N/A   Clear
5:35 AM 24.1 °F 13.7 °F 8.1 °F 51% 30.36 in 10.0 mi NNE 10.4 mph - N/A   Clear
5:55 AM 24.1 °F 12.5 °F 8.2 °F 51% 30.35 in 10.0 mi NNE 12.7 mph - N/A   Clear
6:15 AM 24.3 °F 13.9 °F 8.6 °F 51% 30.37 in 10.0 mi NNE 10.4 mph - N/A   Clear
6:35 AM 24.3 °F 13.3 °F 9.3 °F 53% 30.37 in 10.0 mi North 11.5 mph - N/A   Clear
6:55 AM 24.4 °F 13.5 °F 10.4 °F 55% 30.38 in 10.0 mi North 11.5 mph - N/A   Clear
7:15 AM 24.8 °F 12.9 °F 11.8 °F 58% 30.38 in 10.0 mi NNE 13.8 mph - N/A   Clear
7:35 AM 25.2 °F 14.4 °F 12.2 °F 58% 30.40 in 10.0 mi North 11.5 mph - N/A   Clear
7:55 AM 25.3 °F 14.1 °F 12.9 °F 59% 30.40 in 10.0 mi North 12.7 mph - N/A   Scattered Clouds
8:15 AM 25.7 °F 15.7 °F 13.8 °F 61% 30.41 in 10.0 mi North 10.4 mph - N/A   Scattered Clouds
8:35 AM 26.4 °F 16.6 °F 14.5 °F 61% 30.42 in 10.0 mi North 10.4 mph - N/A   Clear
8:55 AM 27.7 °F 17.6 °F 16.3 °F 62% 30.42 in 10.0 mi North 11.5 mph - N/A   Scattered Clouds
9:15 AM 27.9 °F 19.8 °F 17.2 °F 64% 30.43 in 10.0 mi North 8.1 mph - N/A   Mostly Cloudy
9:35 AM 28.4 °F 21.2 °F 17.4 °F 63% 30.43 in 10.0 mi North 6.9 mph - N/A   Overcast
9:55 AM 29.1 °F 23.0 °F 18.3 °F 64% 30.43 in 10.0 mi North 5.8 mph - N/A   Overcast
10:15 AM 29.8 °F 23.9 °F 18.5 °F 63% 30.43 in 10.0 mi NNW 5.8 mph - N/A   Overcast
10:35 AM 30.7 °F 26.0 °F 19.4 °F 63% 30.43 in 10.0 mi NNW 4.6 mph - N/A   Overcast
10:55 AM 31.6 °F 28.3 °F 19.9 °F 62% 30.43 in 10.0 mi NNW 3.5 mph - N/A   Overcast
11:15 AM 32.2 °F 27.7 °F 20.1 °F 61% 30.42 in 10.0 mi North 4.6 mph - N/A   Overcast
11:35 AM 33.1 °F 28.7 °F 19.9 °F 59% 30.42 in 10.0 mi NNE 4.6 mph - N/A   Overcast
11:55 AM 34.2 °F 31.2 °F 19.4 °F 55% 30.41 in 10.0 mi NW 3.5 mph - N/A   Overcast
12:15 PM 34.3 °F - 19.2 °F 54% 30.41 in 10.0 mi North - - N/A   Overcast
12:35 PM 35.1 °F - 19.0 °F 52% 30.40 in 10.0 mi North - - N/A   Overcast
12:55 PM 36.9 °F 33.1 °F 18.7 °F 48% 30.38 in 10.0 mi West 4.6 mph - N/A   Overcast
1:15 PM 37.8 °F - 18.5 °F 46% 30.37 in 10.0 mi Calm Calm - N/A   Overcast
1:35 PM 38.8 °F 34.6 °F 18.1 °F 43% 30.36 in 10.0 mi SSW 5.8 mph - N/A   Overcast
1:55 PM 40.5 °F 38.4 °F 18.1 °F 41% 30.35 in 10.0 mi SW 3.5 mph - N/A   Overcast
2:15 PM 41.7 °F 38.8 °F 18.1 °F 39% 30.33 in 10.0 mi South 4.6 mph - N/A   Overcast
2:35 PM 42.8 °F 40.1 °F 18.7 °F 38% 30.31 in 10.0 mi WSW 4.6 mph - N/A   Mostly Cloudy
2:55 PM 44.8 °F 41.0 °F 18.3 °F 35% 30.29 in 10.0 mi SW 6.9 mph - N/A   Scattered Clouds
3:15 PM 46.9 °F - 18.5 °F 32% 30.27 in 10.0 mi SSW 5.8 mph - N/A   Clear
3:35 PM 48.7 °F - 18.9 °F 31% 30.26 in 10.0 mi SSW 9.2 mph - N/A   Clear
3:55 PM 50.0 °F - 19.2 °F 30% 30.24 in 10.0 mi South 10.4 mph 18.4 mph N/A   Clear
4:15 PM 50.9 °F - 19.4 °F 29% 30.23 in 10.0 mi South 11.5 mph 18.4 mph N/A   Clear
4:35 PM 51.6 °F - 19.9 °F 29% 30.22 in 10.0 mi SSW 11.5 mph 21.9 mph N/A   Clear
4:55 PM 51.8 °F - 20.1 °F 29% 30.21 in 10.0 mi SSW 15.0 mph 18.4 mph N/A   Clear
5:15 PM 53.1 °F - 20.7 °F 28% 30.20 in 10.0 mi SW 13.8 mph - N/A   Clear
5:35 PM 52.9 °F - 21.6 °F 29% 30.19 in 10.0 mi SSW 12.7 mph 20.7 mph N/A   Clear
5:55 PM 53.4 °F - 21.9 °F 29% 30.18 in 10.0 mi SSW 15.0 mph 20.7 mph N/A   Clear
6:15 PM 52.3 °F - 21.7 °F 30% 30.18 in 10.0 mi SW 16.1 mph 20.7 mph N/A   Clear
6:35 PM 52.9 °F - 21.2 °F 29% 30.17 in 10.0 mi SSW 16.1 mph 19.6 mph N/A   Clear
6:55 PM 52.7 °F - 20.8 °F 29% 30.17 in 10.0 mi SSW 15.0 mph 21.9 mph N/A   Clear
7:15 PM 51.8 °F - 20.5 °F 29% 30.17 in 10.0 mi SSW 15.0 mph 18.4 mph N/A   Clear
7:35 PM 50.9 °F - 20.3 °F 30% 30.17 in 10.0 mi SSW 12.7 mph - N/A   Clear
7:55 PM 50.0 °F - 20.7 °F 32% 30.17 in 7.0 mi SSW 9.2 mph - N/A   Clear
8:15 PM 46.9 °F - 19.4 °F 34% 30.16 in 10.0 mi South 5.8 mph - N/A   Clear
8:35 PM 45.7 °F - 19.2 °F 35% 30.17 in 10.0 mi North - - N/A   Clear
8:55 PM 44.4 °F - 18.9 °F 36% 30.18 in 10.0 mi North - - N/A   Clear
9:15 PM 42.6 °F - 19.0 °F 39% 30.17 in 10.0 mi North - - N/A   Clear
9:35 PM 41.5 °F 35.9 °F 18.7 °F 40% 30.17 in 10.0 mi South 9.2 mph - N/A   Clear
9:55 PM 41.4 °F 36.8 °F 19.0 °F 41% 30.18 in 10.0 mi SSE 6.9 mph - N/A   Clear
10:15 PM 39.6 °F 34.7 °F 19.2 °F 44% 30.18 in 10.0 mi South 6.9 mph - N/A   Clear
10:35 PM 42.3 °F 36.3 °F 21.2 °F 43% 30.17 in 10.0 mi South 10.4 mph - N/A   Clear
10:55 PM 39.9 °F 33.9 °F 20.3 °F 45% 30.17 in 10.0 mi South 9.2 mph - N/A   Clear
11:15 PM 38.1 °F 32.9 °F 20.3 °F 49% 30.17 in 10.0 mi South 6.9 mph - N/A   Clear
11:35 PM 37.9 °F 32.7 °F 19.8 °F 48% 30.17 in 10.0 mi South 6.9 mph - N/A   Clear
11:55 PM 38.3 °F 32.5 °F 20.3 °F 48% 30.17 in 10.0 mi South 8.1 mph - N/A   Clear